Weather History for Eindhoven, Netherlands

Change the Weather History Date:

Monday, May 12, 2014

  Actual Average Record
Temperature  
Mean Temperature 49 °F -  
Max Temperature 54 °F 66 °F 89 °F (1998)
Min Temperature 44 °F 48 °F 35 °F (2005)
Degree Days  
Heating Degree Days 16    
Moisture  
Dew Point 47 °F    
Average Humidity 89    
Maximum Humidity 100    
Minimum Humidity 63    
Precipitation  
Precipitation 0.35 in - - ()
Sea Level Pressure  
Sea Level Pressure 29.79 in    
Wind  
Wind Speed 13 mph ()    
Max Wind Speed 18 mph    
Max Gust Speed -    
Visibility 7.0 miles    
Events Rain , Thunderstorm    
Averages and records for this station are not official NWS values.
T = Trace of Precipitation, MM = Missing Value Source: Averaged Metar Reports

Daily Weather History Graph

Daily Weather History Graph

Search for Another Location

Airport:

Trip Planner

Search our weather history database for the weather conditions in past years. The results will help you decide how hot, cold, wet, or windy it might be!

Date:

Astronomy

May. 12, 2014 Rise Set
Actual Time 5:51 AM CEST 9:18 PM CEST
Civil Twilight 5:11 AM CEST 9:59 PM CEST
Nautical Twilight 4:16 AM CEST 10:54 PM CEST
Astronomical Twilight 3:00 AM CEST 12:13 AM CEST
Moon 6:43 PM CEST (5/12) 4:42 AM CEST (5/12)
Length of Visible Light 16h 48m
Length of Day
15h 27m
Waxing Gibbous, 93% of the Moon is Illuminated
May 12
Waxing Gibbous
May 14
Full
May 21
Last Quarter
May 28
New
Jun 5
First Quarter

Hourly Weather History & Observations

Time (CEST) Temp. Windchill Dew Point Humidity Pressure Visibility Wind Dir Wind Speed Gust Speed Precip Events Conditions
12:00 AM 52 °F - 43 °F 63% 29.73 in 16 mi SW 15.7 mph - -   Partly Cloudy
12:25 AM 51.8 °F - 42.8 °F 71% 29.71 in 6.2 mi SW 16.1 mph - N/A   Mostly Cloudy
12:40 AM 51.8 °F - 42.8 °F 71% 29.71 in 6.2 mi WSW 16.1 mph - N/A   Overcast
12:44 AM 51.8 °F - 42.8 °F 71% 29.71 in 6.2 mi WSW 15.0 mph - N/A   Overcast
12:55 AM 51.8 °F - 42.8 °F 71% 29.71 in 6.2 mi SW 16.1 mph - N/A   Overcast
1:00 AM 51 °F - 43 °F 67% 29.73 in 15 mi SW 15.7 mph - -   Partly Cloudy
1:25 AM 50.0 °F - 44.6 °F 82% 29.71 in 6.2 mi SW 16.1 mph - N/A   Overcast
1:44 AM 50.0 °F - 44.6 °F 82% 29.71 in 6.2 mi SW 16.1 mph - N/A   Drizzle
1:55 AM 50.0 °F - 44.6 °F 82% 29.71 in 6.2 mi SW 17.3 mph - N/A Rain Light Rain
2:00 AM 50 °F - 45 °F 77% 29.73 in 7 mi SW 17.9 mph - - Rain Light Rain Showers
2:25 AM 48.2 °F - 46.4 °F 93% 29.71 in 6.2 mi SW 16.1 mph - N/A   Light Drizzle
2:55 AM 48.2 °F - 46.4 °F 93% 29.71 in 6.2 mi SW 16.1 mph - N/A   Overcast
3:00 AM 49 °F - 46 °F 85% 29.73 in 11 mi SW 15.7 mph - - Rain Rain
3:06 AM 48.2 °F - 46.4 °F 93% 29.71 in 6.2 mi SW 15.0 mph - N/A   Overcast
3:10 AM 48.2 °F - 46.4 °F 93% 29.71 in 6.2 mi SW 16.1 mph - N/A   Overcast
3:25 AM 48.2 °F - 46.4 °F 93% 29.71 in 6.2 mi SW 15.0 mph - N/A   Mostly Cloudy
3:27 AM 48.2 °F - 46.4 °F 93% 29.71 in 6.2 mi SW 16.1 mph - N/A Rain Light Rain
3:55 AM 48.2 °F - 46.4 °F 93% 29.71 in 6.2 mi SW 15.0 mph - N/A Rain Light Rain
4:00 AM 48 °F - 46 °F 89% 29.74 in 6 mi SW 15.7 mph - - Rain Heavy Rain
4:25 AM 48.2 °F - 46.4 °F 93% 29.71 in 5.6 mi SW 13.8 mph - N/A Rain Light Rain Showers
4:55 AM 48.2 °F - 46.4 °F 93% 29.71 in 6.2 mi SW 13.8 mph - N/A   Mostly Cloudy
5:00 AM 48 °F - 46 °F 89% 29.73 in 9 mi SW 13.4 mph - - Rain Rain
5:25 AM 48.2 °F - 44.6 °F 87% 29.71 in 6.2 mi SW 12.7 mph - N/A   Overcast
5:55 AM 48.2 °F - 44.6 °F 87% 29.74 in 6.2 mi SW 13.8 mph - N/A   Partly Cloudy
6:00 AM 47 °F - 45 °F 88% 29.75 in 11 mi SW 13.4 mph - -   Partly Cloudy
6:25 AM 48.2 °F - 44.6 °F 87% 29.74 in 6.2 mi SW 13.8 mph - N/A   Overcast
6:40 AM 48.2 °F - 44.6 °F 87% 29.74 in 6.2 mi SW 13.8 mph - N/A   Mostly Cloudy
6:45 AM 48.2 °F - 44.6 °F 87% 29.74 in 6.2 mi SW 13.8 mph - N/A   Mostly Cloudy
6:55 AM 48.2 °F - 44.6 °F 87% 29.74 in 6.2 mi SW 13.8 mph - N/A   Overcast
7:00 AM 48 °F - 45 °F 86% 29.75 in 11 mi SW 15.7 mph - -   Partly Cloudy
7:25 AM 50.0 °F - 46.4 °F 87% 29.74 in 6.2 mi SW 16.1 mph - N/A   Mostly Cloudy
7:27 AM 48.2 °F - 46.4 °F 93% 29.74 in 6.2 mi SW 15.0 mph - N/A   Mostly Cloudy
7:32 AM 48.2 °F - 44.6 °F 87% 29.74 in 6.2 mi SW 13.8 mph - N/A   Overcast
7:33 AM 48.2 °F - 44.6 °F 87% 29.74 in 6.2 mi SW 13.8 mph - N/A   Overcast
7:41 AM 48.2 °F - 44.6 °F 87% 29.74 in 6.2 mi SW 15.0 mph - N/A   Overcast
7:46 AM 48.2 °F - 44.6 °F 87% 29.74 in 6.2 mi SW 15.0 mph - N/A   Overcast
7:47 AM 48.2 °F - 44.6 °F 87% 29.74 in 6.2 mi SW 15.0 mph - N/A   Overcast
7:55 AM 50.0 °F - 44.6 °F 82% 29.74 in 6.2 mi SW 16.1 mph - N/A   Overcast
8:00 AM 49 °F - 46 °F 83% 29.77 in 11 mi SW 17.9 mph - -   Partly Cloudy
8:25 AM 50.0 °F - 44.6 °F 82% 29.77 in 6.2 mi SW 16.1 mph - N/A   Overcast
8:35 AM 50.0 °F - 46.4 °F 87% 29.77 in 6.2 mi SW 16.1 mph - N/A   Overcast
8:40 AM 50.0 °F - 46.4 °F 87% 29.77 in 6.2 mi SW 17.3 mph - N/A   Overcast
8:47 AM 50.0 °F - 46.4 °F 87% 29.77 in 6.2 mi SW 16.1 mph - N/A   Overcast
8:55 AM 50.0 °F - 46.4 °F 87% 29.77 in 6.2 mi SW 15.0 mph - N/A   Overcast
9:00 AM 50 °F - 45 °F 78% 29.78 in 13 mi SW 15.7 mph - -   Overcast
9:02 AM 50.0 °F - 46.4 °F 87% 29.77 in 6.2 mi SW 15.0 mph - N/A   Overcast
9:11 AM 50.0 °F - 46.4 °F 87% 29.77 in 6.2 mi SW 15.0 mph - N/A Rain Light Rain
9:25 AM 51.8 °F - 46.4 °F 82% 29.77 in 6.2 mi SW 16.1 mph - N/A   Mostly Cloudy
9:39 AM 51.8 °F - 46.4 °F 82% 29.77 in 6.2 mi SW 15.0 mph - N/A Rain Light Rain
9:55 AM 51.8 °F - 46.4 °F 82% 29.77 in 6.2 mi SW 17.3 mph - N/A   Overcast
9:56 AM 51.8 °F - 46.4 °F 82% 29.77 in 6.2 mi SW 16.1 mph - N/A   Mostly Cloudy
10:00 AM 51 °F - 46 °F 77% 29.79 in 12 mi SW 15.7 mph - - Rain Rain
10:03 AM 51.8 °F - 46.4 °F 82% 29.77 in 6.2 mi SW 15.0 mph - N/A   Overcast
10:10 AM 51.8 °F - 46.4 °F 82% 29.77 in 3.7 mi WSW 13.8 mph - N/A Rain Light Rain
10:21 AM 50.0 °F - 48.2 °F 94% 29.77 in 5.0 mi WSW 15.0 mph - N/A Rain Light Rain Showers
10:25 AM 51.8 °F - 48.2 °F 88% 29.77 in 5.0 mi SW 15.0 mph - N/A Rain Rain Showers
10:30 AM 51.8 °F - 48.2 °F 88% 29.77 in 6.2 mi SW 12.7 mph - N/A   Mostly Cloudy
10:44 AM 51.8 °F - 48.2 °F 88% 29.77 in 6.2 mi SW 11.5 mph - N/A   Mostly Cloudy
10:55 AM 53.6 °F - 50.0 °F 88% 29.77 in 6.2 mi SW 13.8 mph - N/A   Mostly Cloudy
11:00 AM 52 °F - 48 °F 82% 29.80 in 16 mi SW 17.9 mph - - Rain Rain
11:06 AM 51.8 °F - 48.2 °F 88% 29.77 in 6.2 mi SW 17.3 mph - N/A   Mostly Cloudy
11:17 AM 53.6 °F - 48.2 °F 82% 29.77 in 6.2 mi SW 16.1 mph - N/A   Mostly Cloudy
11:25 AM 53.6 °F - 50.0 °F 88% 29.77 in 6.2 mi SW 17.3 mph - N/A   Mostly Cloudy
11:29 AM 55.4 °F - 50.0 °F 82% 29.77 in 6.2 mi SW 17.3 mph - N/A   Mostly Cloudy
11:55 AM 55.4 °F - 48.2 °F 77% 29.77 in 6.2 mi WSW 13.8 mph - N/A   Mostly Cloudy
12:00 PM 55 °F - 49 °F 73% 29.80 in 17 mi SW 15.7 mph - -   Partly Cloudy
12:17 PM 51.8 °F - 48.2 °F 88% 29.80 in 4.3 mi SW 18.4 mph - N/A Rain Heavy Rain Showers
12:25 PM 51.8 °F - 48.2 °F 88% 29.80 in 3.7 mi WSW 13.8 mph - N/A Rain Rain Showers
12:29 PM 51.8 °F - 50.0 °F 94% 29.80 in 3.7 mi SW 13.8 mph - N/A Rain Light Rain Showers
12:36 PM 51.8 °F - 50.0 °F 94% 29.80 in 6.2 mi SW 13.8 mph - N/A Rain Light Rain
12:37 PM 53.6 °F - 50.0 °F 88% 29.80 in 6.2 mi SW 12.7 mph - N/A   Mostly Cloudy
12:55 PM 53.6 °F - 48.2 °F 82% 29.80 in 6.2 mi WSW 13.8 mph - N/A   Mostly Cloudy
1:00 PM 53 °F - 49 °F 82% 29.81 in 6 mi WSW 15.7 mph - - Rain Light Rain Showers
1:08 PM 53.6 °F - 50.0 °F 88% 29.80 in 6.2 mi WSW 12.7 mph - N/A   Mostly Cloudy
1:17 PM 53.6 °F - 50.0 °F 88% 29.80 in 6.2 mi WSW 12.7 mph - N/A Rain Light Rain
1:25 PM 51.8 °F - 50.0 °F 94% 29.80 in 5.0 mi WSW 11.5 mph - N/A Rain Light Rain Showers
1:28 PM 51.8 °F - 46.4 °F 82% 29.80 in 6.2 mi WSW 13.8 mph - N/A Rain Light Rain Showers
1:33 PM 50.0 °F - 46.4 °F 87% 29.80 in 3.7 mi WSW 16.1 mph - N/A Rain Light Rain Showers
1:34 PM 50.0 °F - 46.4 °F 87% 29.80 in 5.0 mi WSW 15.0 mph - N/A Rain Rain Showers
1:45 PM 50.0 °F - 46.4 °F 87% 29.80 in 6.2 mi WSW 12.7 mph - N/A Rain , Thunderstorm Thunderstorms and Rain
1:55 PM 50.0 °F - 46.4 °F 87% 29.80 in 6.2 mi WSW 9.2 mph - N/A Rain Light Rain
2:00 PM 49 °F - 47 °F 91% 29.83 in 15 mi SW 8.9 mph - - Rain Light Rain Showers
2:02 PM 50.0 °F - 48.2 °F 94% 29.80 in 6.2 mi SW 10.4 mph - N/A Rain , Thunderstorm Light Thunderstorms and Rain
2:12 PM 50.0 °F - 48.2 °F 94% 29.80 in 6.2 mi SW 9.2 mph - N/A Rain Light Rain
2:16 PM 50.0 °F - 48.2 °F 94% 29.80 in 6.2 mi SW 9.2 mph - N/A   Drizzle
2:25 PM 51.8 °F - 50.0 °F 94% 29.80 in 6.2 mi SW 6.9 mph - N/A Rain Light Rain
2:29 PM 51.8 °F - 48.2 °F 88% 29.80 in 6.2 mi SW 8.1 mph - N/A Rain Light Rain
2:36 PM 51.8 °F - 48.2 °F 88% 29.80 in 6.2 mi WSW 8.1 mph - N/A Rain Rain Showers
2:41 PM 51.8 °F - 48.2 °F 88% 29.80 in 6.2 mi WSW 8.1 mph - N/A Rain Light Rain
2:55 PM 51.8 °F - 48.2 °F 88% 29.83 in 6.2 mi SW 10.4 mph - N/A Rain Heavy Drizzle
3:00 PM 53 °F - 51 °F 92% 29.83 in 8 mi SW 8.9 mph - - Rain Light Rain
3:12 PM 53.6 °F - 50.0 °F 88% 29.83 in 6.2 mi SW 10.4 mph - N/A   Drizzle
3:17 PM 53.6 °F - 50.0 °F 88% 29.83 in 6.2 mi SW 11.5 mph - N/A   Light Drizzle
3:21 PM 51.8 °F - 48.2 °F 88% 29.83 in 6.2 mi SW 12.7 mph - N/A Rain Drizzle
3:25 PM 50.0 °F - 48.2 °F 94% 29.83 in 5.0 mi SW 13.8 mph - N/A Rain Rain Showers
3:31 PM 50.0 °F - 48.2 °F 94% 29.83 in 6.2 mi SW 13.8 mph - N/A Rain Rain Showers
3:35 PM 50.0 °F - 48.2 °F 94% 29.83 in 6.2 mi WSW 12.7 mph - N/A Rain Rain
3:48 PM 51.8 °F - 50.0 °F 94% 29.83 in 6.2 mi WSW 10.4 mph - N/A Rain Light Rain
4:00 PM 51 °F - 49 °F 92% 29.84 in 18 mi SW 11.2 mph - - Rain Light Rain
4:25 PM 50.0 °F - 48.2 °F 94% 29.83 in 6.2 mi SW 12.7 mph - N/A Rain Light Rain
4:38 PM 50.0 °F - 48.2 °F 94% 29.83 in 4.3 mi SW 13.8 mph - N/A Rain , Thunderstorm Thunderstorms and Rain
4:55 PM 48.2 °F - 48.2 °F 100% 29.83 in 3.7 mi SW 13.8 mph - N/A Rain Rain Showers
4:57 PM 48.2 °F - 48.2 °F 100% 29.83 in 6.2 mi SW 12.7 mph - N/A Rain Light Rain Showers
5:00 PM 49 °F - 47 °F 91% 29.85 in 6 mi SSW 11.2 mph - - Rain Rain
5:13 PM 50.0 °F - 48.2 °F 94% 29.83 in 6.2 mi SSW 8.1 mph - N/A Rain Heavy Drizzle
5:25 PM 48.2 °F - 48.2 °F 100% 29.83 in 5.6 mi SSW 6.9 mph - N/A Rain Rain Showers
5:55 PM 48.2 °F - 46.4 °F 93% 29.83 in 6.2 mi South 4.6 mph - N/A Rain Light Rain Showers
5:57 PM 48.2 °F - 48.2 °F 100% 29.83 in 6.2 mi South 4.6 mph - N/A Rain Light Rain
6:00 PM 49 °F - 47 °F 92% 29.86 in 9 mi South 6.7 mph - - Rain Light Rain
6:25 PM 48.2 °F - 48.2 °F 100% 29.83 in 4.3 mi South 5.8 mph - N/A Rain Rain Showers
6:26 PM 48.2 °F - 48.2 °F 100% 29.83 in 6.2 mi South 4.6 mph - N/A Rain Light Rain Showers
6:39 PM 50.0 °F - 50.0 °F 100% 29.83 in 6.2 mi South 3.5 mph - N/A   Mostly Cloudy
6:55 PM 51.8 °F - 50.0 °F 94% 29.83 in 6.2 mi South 4.6 mph - N/A   Mostly Cloudy
7:00 PM 52 °F - 50 °F 89% 29.84 in 19 mi South 4.5 mph - - Rain Rain
7:25 PM 53.6 °F - 50.0 °F 88% 29.83 in 6.2 mi SSW 5.8 mph - N/A   Overcast
7:55 PM 51.8 °F - 50.0 °F 94% 29.83 in 6.2 mi SSW 4.6 mph - N/A   Scattered Clouds
8:00 PM 51 °F - 49 °F 92% 29.86 in 12 mi SSW 4.5 mph - -   Partly Cloudy
8:25 PM 51.8 °F - 50.0 °F 94% 29.83 in 6.2 mi South 5.8 mph - N/A   Mostly Cloudy
8:29 PM 51.8 °F - 50.0 °F 94% 29.83 in 6.2 mi South 5.8 mph - N/A   Mostly Cloudy
8:35 PM 51.8 °F - 50.0 °F 94% 29.83 in 6.2 mi South 5.8 mph - N/A   Light Drizzle
8:40 PM 51.8 °F - 50.0 °F 94% 29.83 in 6.2 mi South 6.9 mph - N/A   Mostly Cloudy
8:41 PM 51.8 °F - 50.0 °F 94% 29.83 in 6.2 mi South 6.9 mph - N/A   Mostly Cloudy
8:55 PM 51.8 °F - 50.0 °F 94% 29.86 in 6.2 mi South 6.9 mph - N/A   Mostly Cloudy
8:56 PM 51.8 °F - 50.0 °F 94% 29.86 in 6.2 mi South 6.9 mph - N/A   Partly Cloudy
9:00 PM 51 °F - 49 °F 92% 29.86 in 10 mi South 6.7 mph - - Rain Rain
9:25 PM 50.0 °F - 50.0 °F 100% 29.86 in 6.2 mi SSW 5.8 mph - N/A   Mostly Cloudy
9:29 PM 50.0 °F - 48.2 °F 94% 29.86 in 6.2 mi SSW 5.8 mph - N/A   Mostly Cloudy
9:35 PM 50.0 °F - 48.2 °F 94% 29.86 in 6.2 mi SSW 4.6 mph - N/A   Mostly Cloudy
9:42 PM 50.0 °F - 48.2 °F 94% 29.86 in 6.2 mi SSW 4.6 mph - N/A   Mostly Cloudy
9:55 PM 50.0 °F - 50.0 °F 100% 29.86 in 6.2 mi SSW 4.6 mph - N/A   Overcast
10:00 PM 50 °F - 49 °F 95% 29.88 in 10 mi SSW 6.7 mph - -   Partly Cloudy
10:11 PM 50.0 °F - 48.2 °F 94% 29.86 in 6.2 mi SSW 8.1 mph - N/A   Overcast
10:15 PM 50.0 °F - 48.2 °F 94% 29.86 in 6.2 mi SSW 9.2 mph - N/A   Overcast
10:25 PM 50.0 °F - 48.2 °F 94% 29.86 in 6.2 mi SSW 6.9 mph - N/A   Overcast
10:38 PM 48.2 °F - 46.4 °F 93% 29.86 in 6.2 mi SSW 6.9 mph - N/A   Mostly Cloudy
10:55 PM 48.2 °F - 44.6 °F 87% 29.86 in 6.2 mi SSW 5.8 mph - N/A   Mostly Cloudy
11:00 PM 46 °F - 44 °F 92% 29.89 in 17 mi SSW 4.5 mph - -   Partly Cloudy
11:03 PM 46.4 °F 44.3 °F 44.6 °F 93% 29.86 in 6.2 mi SW 4.6 mph - N/A   Mostly Cloudy
11:25 PM 44.6 °F 42.2 °F 42.8 °F 93% 29.89 in 6.2 mi SW 4.6 mph - N/A   Scattered Clouds
11:55 PM 44.6 °F 41.4 °F 42.8 °F 93% 29.89 in 6.2 mi SSW 5.8 mph - N/A   Scattered Clouds